Stations météo

Publicité
Apt, France (7657): Température de l'air & dewpoint: 08.11.2018 09:00:00 - 14.11.2018 09:00:00 (CET)Apt, France (7657): Vitesse du vent & gusts: 08.11.2018 09:00:00 - 14.11.2018 09:00:00 (CET)Apt, France (7657): Direction du vent: 08.11.2018 09:00:00 - 14.11.2018 09:00:00 (CET)Apt, France (7657): Quantités de précipitations: 08.11.2018 09:00:00 - 14.11.2018 09:00:00 (CET)
Date & Time tt [°C] td [°C] ff [km/h] ff [knt] fx [km/h] fx [knt] dd rr [mm]
14.11.2018 09:00:00 6,7 6,7 0 0 8 4 N 0,0
14.11.2018 08:00:00 3,6 3,6 0 0 4 2 N 0,0
14.11.2018 07:00:00 1,9 1,9 2 1 5 3 SW -
14.11.2018 06:00:00 2,0 2,0 0 0 5 3 N 0,0
14.11.2018 05:00:00 1,8 1,7 2 1 4 2 WSW 0,0
14.11.2018 04:00:00 2,2 2,1 0 0 5 3 N 0,0
14.11.2018 03:00:00 3,8 3,8 4 2 8 4 W 0,0
14.11.2018 02:00:00 2,8 2,7 2 1 4 2 S 0,0
14.11.2018 01:00:00 3,5 3,4 0 0 4 2 N -
14.11.2018 00:00:00 4,1 4,0 2 1 4 2 W 0,0
13.11.2018 23:00:00 4,8 4,5 0 0 5 3 N 0,0
13.11.2018 22:00:00 5,9 5,8 2 1 5 3 NNW 0,0
13.11.2018 21:00:00 6,5 6,2 2 1 8 4 WSW 0,0
13.11.2018 20:00:00 8,1 7,8 4 2 8 4 W 0,0
13.11.2018 19:00:00 8,7 8,2 0 0 9 5 N -
13.11.2018 18:00:00 10,3 9,1 5 3 15 8 W 0,0
13.11.2018 17:00:00 13,1 10,1 8 4 16 9 W 0,0
13.11.2018 16:00:00 15,9 10,9 8 4 15 8 W 0,0
13.11.2018 15:00:00 15,9 9,3 8 4 21 11 WNW 0,0
13.11.2018 14:00:00 17,3 9,5 4 2 15 8 W 0,0
13.11.2018 13:00:00 16,5 8,7 4 2 18 10 SE -
13.11.2018 12:00:00 15,0 8,9 11 6 24 13 ESE 0,0
13.11.2018 11:00:00 13,3 9,0 9 5 15 8 SE 0,0
13.11.2018 10:00:00 12,7 9,5 4 2 9 5 ESE 0,0
13.11.2018 09:00:00 10,7 9,5 4 2 8 4 SSW 0,0
13.11.2018 08:00:00 10,2 9,1 2 1 4 2 S 0,0
13.11.2018 07:00:00 10,4 9,0 0 0 9 5 N -
13.11.2018 06:00:00 10,6 8,7 8 4 9 5 SW 0,0
13.11.2018 05:00:00 10,8 8,4 4 2 11 6 S 0,0
13.11.2018 04:00:00 10,8 8,9 4 2 9 5 S 0,0
13.11.2018 03:00:00 11,1 8,7 4 2 9 5 SSW 0,0
13.11.2018 02:00:00 11,4 8,8 4 2 15 8 S 0,0
13.11.2018 01:00:00 11,3 8,9 4 2 21 11 SSE -
13.11.2018 00:00:00 11,5 8,9 13 7 26 14 SSE 0,0
12.11.2018 23:00:00 11,5 8,7 8 4 37 20 SSE 0,0
12.11.2018 22:00:00 11,5 8,7 22 12 42 23 SE 0,0
12.11.2018 21:00:00 11,2 8,6 22 12 41 22 SE 0,0
12.11.2018 20:00:00 11,2 8,8 21 11 34 18 SE 0,0
12.11.2018 19:00:00 10,7 9,3 15 8 41 22 SE -
12.11.2018 18:00:00 11,3 9,6 24 13 44 24 SE 0,0
12.11.2018 17:00:00 11,6 9,8 26 14 50 27 SE 0,0
12.11.2018 16:00:00 11,9 10,0 28 15 50 27 SE 0,0
12.11.2018 15:00:00 12,0 10,6 24 13 46 25 SE 0,0
12.11.2018 14:00:00 12,2 11,1 22 12 48 26 SE 0,0
12.11.2018 13:00:00 12,1 11,3 24 13 44 24 SE -
12.11.2018 12:00:00 11,7 11,4 28 15 50 27 SE 0,0
12.11.2018 11:00:00 11,5 11,3 28 15 52 28 SE 0,2
12.11.2018 10:00:00 11,4 11,4 24 13 54 29 SE 0,2
12.11.2018 09:00:00 11,2 11,2 29 16 52 28 SE 0,4
12.11.2018 08:00:00 11,2 11,0 22 12 44 24 SE 0,0
12.11.2018 07:00:00 11,1 10,9 22 12 54 29 SE -
12.11.2018 06:00:00 11,1 11,1 28 15 52 28 ESE 0,0
12.11.2018 05:00:00 11,1 10,9 28 15 50 27 SE 0,0
12.11.2018 04:00:00 11,2 11,0 28 15 50 27 ESE 0,0
12.11.2018 03:00:00 11,1 11,1 26 14 48 26 SE 0,0
12.11.2018 02:00:00 10,9 10,9 28 15 48 26 SE 0,0
12.11.2018 01:00:00 10,8 10,8 26 14 54 29 SE -
12.11.2018 00:00:00 10,9 10,9 29 16 55 30 SE 1,0
11.11.2018 23:00:00 11,1 11,1 26 14 44 24 ESE 1,0
11.11.2018 22:00:00 11,3 11,1 24 13 41 22 SE 0,8
11.11.2018 21:00:00 11,3 10,7 26 14 48 26 SE 0,0
11.11.2018 20:00:00 11,3 11,0 22 12 41 22 ESE 0,0
11.11.2018 19:00:00 11,4 10,9 26 14 44 24 SE -
11.11.2018 18:00:00 11,5 10,9 24 13 42 23 SE 0,0
11.11.2018 17:00:00 11,5 11,0 22 12 44 24 SE 0,0
11.11.2018 16:00:00 11,7 11,2 24 13 41 22 ESE 0,0
11.11.2018 15:00:00 11,9 11,3 16 9 44 24 ESE 0,0
11.11.2018 14:00:00 11,7 10,9 21 11 39 21 ESE 0,0
11.11.2018 13:00:00 11,1 10,9 21 11 37 20 SE -
11.11.2018 12:00:00 10,5 10,5 18 10 34 18 ESE 0,0
11.11.2018 11:00:00 10,0 10,0 15 8 28 15 ESE 0,0
11.11.2018 10:00:00 9,3 9,2 16 9 29 16 SE 0,0
11.11.2018 09:00:00 9,1 9,1 18 10 29 16 SE 0,0
11.11.2018 08:00:00 9,1 9,0 18 10 28 15 ESE 0,0
11.11.2018 07:00:00 9,1 9,0 15 8 24 13 ESE -
11.11.2018 06:00:00 9,2 8,9 11 6 34 18 SE 0,0
11.11.2018 05:00:00 9,0 8,7 21 11 37 20 SE 0,0
11.11.2018 04:00:00 8,9 8,6 18 10 31 17 ESE 0,0
11.11.2018 03:00:00 8,4 8,1 18 10 39 21 ESE 0,0
11.11.2018 02:00:00 8,2 8,1 18 10 31 17 SE 0,0
11.11.2018 01:00:00 8,3 8,2 18 10 29 16 SE -
11.11.2018 00:00:00 8,5 8,4 16 9 35 19 SE 0,2
10.11.2018 23:00:00 8,9 8,8 18 10 39 21 SE 0,8
10.11.2018 22:00:00 9,4 8,6 11 6 34 18 SSE 0,0
10.11.2018 21:00:00 9,5 8,3 15 8 29 16 SE 0,0
10.11.2018 20:00:00 9,4 7,8 15 8 39 21 SE 0,0
10.11.2018 19:00:00 9,4 7,7 21 11 31 17 ESE -
10.11.2018 18:00:00 9,8 7,2 11 6 28 15 SE 0,0
10.11.2018 17:00:00 10,3 6,8 18 10 37 20 SE 0,0
10.11.2018 16:00:00 11,1 8,1 21 11 44 24 SE 0,0
10.11.2018 15:00:00 11,5 9,2 24 13 52 28 SE 0,0
10.11.2018 14:00:00 11,7 9,4 26 14 46 25 SE 0,0
10.11.2018 13:00:00 11,6 10,5 15 8 39 21 SE -
10.11.2018 12:00:00 11,3 10,2 22 12 37 20 SE 0,0
10.11.2018 11:00:00 11,3 10,4 18 10 35 19 SE 0,0
10.11.2018 10:00:00 10,7 10,4 21 11 37 20 SE 0,0
10.11.2018 09:00:00 10,6 10,3 18 10 50 27 SSE 0,4
10.11.2018 08:00:00 10,2 10,0 21 11 42 23 SE 0,6
10.11.2018 07:00:00 10,1 9,9 16 9 35 19 SE -
10.11.2018 06:00:00 10,0 9,4 21 11 34 18 SE 0,0
10.11.2018 05:00:00 10,0 9,2 18 10 31 17 SE 0,0
10.11.2018 04:00:00 10,0 9,5 21 11 34 18 ESE 0,0
10.11.2018 03:00:00 10,2 9,4 18 10 34 18 SE 0,0
10.11.2018 02:00:00 10,1 9,0 11 6 31 17 SE 0,2
10.11.2018 01:00:00 10,2 8,8 18 10 34 18 ESE -
10.11.2018 00:00:00 9,8 8,7 11 6 22 12 ESE 0,0
09.11.2018 23:00:00 9,7 8,8 11 6 28 15 SE 0,6
09.11.2018 22:00:00 10,7 8,3 18 10 35 19 SE 0,0
09.11.2018 21:00:00 10,6 7,5 18 10 31 17 SE 0,0
09.11.2018 20:00:00 10,5 8,1 11 6 31 17 SSE 0,0
09.11.2018 19:00:00 9,9 8,0 11 6 21 11 ESE -
09.11.2018 18:00:00 9,7 7,8 11 6 31 17 ESE 0,0
09.11.2018 17:00:00 10,7 7,9 18 10 34 18 SE 0,0
09.11.2018 16:00:00 11,8 9,2 22 12 41 22 SE 0,0
09.11.2018 15:00:00 11,8 9,2 18 10 39 21 ESE 0,0
09.11.2018 14:00:00 12,5 9,1 18 10 39 21 ESE 0,0
09.11.2018 13:00:00 9,7 9,1 16 9 24 13 ESE -
09.11.2018 12:00:00 9,7 8,6 16 9 28 15 ESE 0,2
09.11.2018 11:00:00 10,7 7,8 13 7 37 20 SE 0,0
09.11.2018 10:00:00 10,8 7,5 18 10 34 18 ESE 0,0
09.11.2018 09:00:00 10,2 7,4 16 9 34 18 ESE 0,0
09.11.2018 08:00:00 10,1 7,3 16 9 31 17 SE 0,0
09.11.2018 07:00:00 9,7 7,6 15 8 28 15 SE -
09.11.2018 06:00:00 9,7 8,1 11 6 26 14 SE 0,0
09.11.2018 05:00:00 9,8 8,7 15 8 31 17 ESE 0,0
09.11.2018 04:00:00 9,8 8,9 16 9 31 17 SE 0,0
09.11.2018 03:00:00 9,6 9,0 15 8 34 18 ESE 0,0
09.11.2018 02:00:00 9,5 8,4 11 6 26 14 SE 0,0
09.11.2018 01:00:00 9,5 8,3 8 4 34 18 ESE -
09.11.2018 00:00:00 9,2 8,3 4 2 26 14 SSE 0,0
08.11.2018 23:00:00 9,7 8,6 11 6 31 17 SE 0,0
08.11.2018 22:00:00 9,8 9,2 18 10 34 18 ESE 0,0
08.11.2018 21:00:00 9,9 9,3 16 9 31 17 SE 0,0
08.11.2018 20:00:00 10,1 9,5 18 10 35 19 SE 0,0
08.11.2018 19:00:00 10,3 9,5 21 11 37 20 SE -
08.11.2018 18:00:00 10,5 9,9 18 10 31 17 SE 0,0
08.11.2018 17:00:00 10,6 9,8 15 8 26 14 SE 0,0
08.11.2018 16:00:00 11,2 9,5 13 7 26 14 SE 0,0
08.11.2018 15:00:00 12,0 9,7 15 8 29 16 SE 0,0
08.11.2018 14:00:00 11,4 9,8 13 7 28 15 SE 0,0
08.11.2018 13:00:00 10,9 9,5 18 10 31 17 SE -
08.11.2018 12:00:00 10,2 9,7 11 6 29 16 SSE 0,2
08.11.2018 11:00:00 9,7 9,6 9 5 18 10 SE 0,0
08.11.2018 10:00:00 9,4 9,3 11 6 26 14 SE 0,0
08.11.2018 09:00:00 8,9 8,8 8 4 18 10 SE 0,0

tt = Température de l'air
td = dewpoint
ff = Vitesse du vent
fx = gusts
dd = Direction du vent
rr = Quantités de précipitations

stations d'obs. à proximité